Weather
NORAD ID: 27431
Int'l Code: 2002-024B
Perigee: 857.7 km
Apogee: 879.5 km
Inclination: 98.8 °
Period: 102.2 minutes
Semi major axis: 7239 km
Launch date: May 15, 2002
Source: People's Republic of China (PRC)
Comments: Polar-orbiting satellite; carries Multichannel Visible and Infrared Scan Radiometer (MVISR); means "wind and cloud."
Two Line Element Set (TLE):
1 27431U 02024B 13142.95807357 -.00000038 00000-0 33739-5 0 2502
2 27431 098.8139 107.5505 0015018 313.9818 046.0114 14.09396146567049
Source: AFSPC
NASA's NSSDC Master Catalog entry for FENGYUN 1D